Location: Calmejanne
(44.7523°N, 1.9418°E)
Time: 08:23:17
(UTC+00:00)

Cosmos 1092 Rocket - Pass Details

Date: 14 May 2026
Orbit: 953 x 994 km, 83.0° (Epoch: 5 June)

Event Time Altitude Azimuth Distance (km) Brightness Sun altitude
Rises 22:55:08 0° 347° (NNW) 3,647 8.4 -25.3°
Reaches altitude 10° 22:57:41 10° 343° (NNW) 2,701 7.4 -25.4°
Maximum altitude 23:03:39 53° 269° (W) 1,171 4.4 -25.6°
Enters shadow 23:05:07 44° 226° (SW) 1,317 4.4 -25.7°
